DW7144 Weather Reports


time (UTC)temp
C
wind
direction
speed
KPH
gust
KPH
rain 1hr
cm
rain 24hr
cm
rain mn
cm
humidity
%
barometer
mb
20260507183603 13 101 9.7 16.1 0.00 0.00 0.00 66 1012.4
20260507182703 13 109 8.0 17.7 0.00 0.00 0.00 65 1012.4
20260507181803 13 107 8.0 20.9 0.00 0.00 0.00 65 1012.4
20260507180903 13 112 9.7 20.9 0.00 0.00 0.00 63 1012.3
20260507180003 13 99 8.0 16.1 0.00 0.00 0.00 62 1012.2
20260507175403 14 96 9.7 16.1 0.00 0.00 0.00 60 1012.1
20260507174503 14 104 8.0 16.1 0.00 0.00 0.00 58 1012.0
20260507173603 14 97 8.0 17.7 0.00 0.00 0.00 58 1012.1
20260507172703 15 132 8.0 16.1 0.00 0.00 0.00 57 1012.0
20260507171803 15 119 6.4 16.1 0.00 0.00 0.00 55 1012.1
20260507170903 14 125 6.4 14.5 0.00 0.00 0.00 56 1012.1
20260507170003 14 124 6.4 12.9 0.00 0.00 0.00 56 1012.2
20260507165403 14 139 6.4 12.9 0.00 0.00 0.00 54 1012.2
20260507164503 14 123 4.8 12.9 0.00 0.00 0.00 56 1012.2
20260507163624 14 99 6.4 14.5 0.00 0.00 0.00 56 1012.2
20260507162724 15 127 4.8 14.5 0.00 0.00 0.00 53 1012.2
20260507161824 14 106 6.4 14.5 0.00 0.00 0.00 53 1012.2
20260507160924 15 105 6.4 16.1 0.00 0.00 0.00 53 1012.2
20260507160024 15 121 6.4 12.9 0.00 0.00 0.00 54 1012.2
20260507155403 15 96 8.0 16.1 0.00 0.00 0.00 52 1012.2
20260507154503 15 112 4.8 12.9 0.00 0.00 0.00 53 1012.2
20260507153603 14 116 8.0 16.1 0.00 0.00 0.00 55 1012.2
20260507152703 14 100 6.4 16.1 0.00 0.00 0.00 56 1012.3
20260507151803 14 94 8.0 17.7 0.00 0.00 0.00 53 1012.5
20260507150924 14 86 8.0 17.7 0.00 0.00 0.00 56 1012.5
20260507150003 14 100 8.0 19.3 0.00 0.00 0.00 55 1012.5
20260507145403 14 97 11.3 19.3 0.00 0.00 0.00 57 1012.6
20260507144503 14 106 9.7 20.9 0.00 0.00 0.00 58 1012.6
20260507143603 14 94 9.7 20.9 0.00 0.00 0.00 56 1012.6
20260507142703 14 94 9.7 19.3 0.00 0.00 0.00 57 1012.6
20260507141803 15 95 4.8 12.9 0.00 0.00 0.00 55 1012.8
20260507140903 13 100 8.0 20.9 0.00 0.00 0.00 58 1012.8
20260507140003 13 136 6.4 19.3 0.00 0.00 0.00 58 1012.9
20260507135424 14 149 6.4 14.5 0.00 0.00 0.00 55 1012.9
20260507134503 14 115 6.4 14.5 0.00 0.00 0.00 58 1012.9
20260507133603 14 124 6.4 16.1 0.00 0.00 0.00 54 1013.0
20260507132703 15 127 6.4 14.5 0.00 0.00 0.00 53 1013.1
20260507131803 15 150 8.0 16.1 0.00 0.00 0.00 55 1013.1
20260507130903 15 119 6.4 16.1 0.00 0.00 0.00 57 1013.1
20260507130003 14 112 8.0 16.1 0.00 0.00 0.00 59 1013.1
20260507125403 14 123 8.0 16.1 0.00 0.00 0.00 57 1013.2
20260507124524 13 108 8.0 16.1 0.00 0.00 0.00 59 1013.1
20260507123624 14 110 6.4 16.1 0.00 0.00 0.00 56 1013.2
20260507122705 13 107 8.0 17.7 0.00 0.00 0.00 58 1013.2
20260507121803 13 99 6.4 16.1 0.00 0.00 0.00 57 1013.2
20260507120903 13 108 9.7 19.3 0.00 0.00 0.00 57 1013.3
20260507120024 13 111 11.3 20.9 0.00 0.00 0.00 56 1013.3
20260507115403 13 127 8.0 20.9 0.00 0.00 0.00 58 1013.4
20260507114503 13 109 9.7 22.5 0.00 0.00 0.00 60 1013.4
20260507113603 13 115 11.3 19.3 0.00 0.00 0.00 61 1013.4
20260507112703 13 130 11.3 20.9 0.00 0.00 0.00 61 1013.6
20260507111803 14 131 8.0 20.9 0.00 0.00 0.00 56 1013.5
20260507110903 13 133 8.0 19.3 0.00 0.00 0.00 56 1013.5
20260507110003 13 135 6.4 19.3 0.00 0.00 0.00 59 1013.5
20260507105403 13 153 6.4 19.3 0.00 0.00 0.00 56 1013.5
20260507104503 13 124 4.8 11.3 0.00 0.00 0.00 62 1013.5
20260507103603 12 107 8.0 17.7 0.00 0.00 0.00 58 1013.5
20260507102703 13 141 4.8 14.5 0.00 0.00 0.00 57 1013.6
20260507101824 13 161 4.8 16.1 0.00 0.00 0.00 57 1013.6
20260507100903 14 144 4.8 12.9 0.00 0.00 0.00 57 1013.6
20260507100024 12 129 6.4 16.1 0.00 0.00 0.00 64 1013.6
20260507095403 12 120 8.0 17.7 0.00 0.00 0.00 63 1013.7
20260507094503 12 123 8.0 17.7 0.00 0.00 0.00 59 1013.8
20260507093603 12 133 6.4 19.3 0.00 0.00 0.00 65 1013.6
20260507092703 12 126 6.4 12.9 0.00 0.00 0.00 64 1013.6
20260507091803 12 180 4.8 12.9 0.00 0.00 0.00 69 1013.7
20260507090903 12 184 4.8 11.3 0.00 0.00 0.00 68 1013.7
20260507090004 12 194 4.8 9.7 0.00 0.00 0.00 67 1013.8
20260507085403 12 191 3.2 12.9 0.00 0.00 0.00 68 1013.7
20260507084503 12 155 4.8 14.5 0.00 0.00 0.00 71 1013.8
20260507083603 12 117 3.2 9.7 0.00 0.00 0.00 74 1013.7
20260507082703 11 117 3.2 9.7 0.00 0.00 0.00 77 1013.7
20260507081824 11 116 1.6 6.4 0.00 0.00 0.00 81 1013.7
20260507080903 10 115 3.2 6.4 0.00 0.00 0.00 84 1013.8
20260507080024 9 115 4.8 11.3 0.00 0.00 0.00 84 1013.8
20260507075403 10 113 4.8 12.9 0.00 0.00 0.00 84 1013.7
20260507074503 10 111 3.2 11.3 0.00 0.00 0.00 87 1013.7
20260507073603 9 112 4.8 12.9 0.00 0.00 0.00 88 1013.7
20260507072703 9 111 4.8 9.7 0.00 0.00 0.00 90 1013.6
20260507071824 8 111 3.2 9.7 0.00 0.00 0.00 91 1013.6
20260507070903 8 111 3.2 9.7 0.00 0.00 0.00 91 1013.7
20260507070024 8 107 3.2 6.4 0.00 0.00 0.00 91 1013.6
20260507065424 8 89 4.8 12.9 0.00 0.00 0.00 92 1013.6
20260507064524 8 20 1.6 6.4 0.00 0.00 0.00 91 1013.6
20260507063603 7 20 3.2 6.4 0.00 0.00 0.00 92 1013.5
20260507062703 7 20 1.6 6.4 0.00 0.00 0.00 92 1013.5
20260507061803 7 20 1.6 6.4 0.00 0.00 0.00 92 1013.3
20260507060903 7 20 1.6 8.0 0.00 0.00 0.00 92 1013.3
20260507060003 7 19 1.6 6.4 0.00 0.00 0.00 92 1013.2
20260507055424 7 19 3.2 6.4 0.00 0.00 0.00 92 1013.1
20260507054503 7 19 1.6 6.4 0.00 0.00 0.00 92 1013.2
20260507053603 7 19 3.2 6.4 0.00 0.00 0.00 92 1013.1
20260507052724 7 19 1.6 4.8 0.00 0.00 0.00 92 1013.1
20260507051803 7 19 1.6 3.2 0.00 0.00 0.00 92 1013.1
20260507050903 7 19 1.6 4.8 0.00 0.00 0.00 92 1013.1
20260507050005 7 19 1.6 4.8 0.00 0.00 0.00 92 1013.1
20260507045403 7 0 0.0 3.2 0.00 0.00 0.00 92 1013.0
20260507044503 7 0 0.0 3.2 0.00 0.00 0.00 91 1013.0
20260507043603 7 0 0.0 3.2 0.00 0.00 0.00 91 1013.0
20260507042724 7 19 1.6 6.4 0.00 0.00 0.00 91 1012.9
20260507041803 7 19 1.6 6.4 0.00 0.00 0.00 91 1012.9
20260507040903 7 0 0.0 1.6 0.00 0.00 0.00 91 1013.0
20260507040003 7 0 0.0 3.2 0.00 0.00 0.00 91 1012.9
20260507035424 7 19 1.6 4.8 0.00 0.00 0.00 91 1012.9
20260507034524 7 0 0.0 0.0 0.00 0.00 0.00 91 1012.9
20260507033603 7 0 0.0 0.0 0.00 0.00 0.00 91 1012.9
20260507032703 7 0 0.0 0.0 0.00 0.00 0.00 91 1012.9
20260507031803 7 0 0.0 0.0 0.00 0.00 0.00 91 1013.0
20260507030903 7 0 0.0 3.2 0.00 0.00 0.00 91 1012.9
20260507030003 7 0 0.0 3.2 0.00 0.00 0.00 91 1012.9